Home   Weather   Wailuku   Past weeks

Flag for USA Past Weather in Wailuku, Hawaii, USA — Yesterday and Last 2 Weeks

Now
76 °F

Clear.


Feels Like: 77 °F
Forecast: 74 / 86 °F
Wind: 9 mph from Northeast

Location: Kahului Airport

Current Time: Aug 30, 2016 at 1:08:30 AM

Latest Report: Aug 29, 2016 at 11:54 PM


Visibility: 10 mi

Pressure: 30.03 "Hg

Humidity: 74%

Dew Point: 67 °F

Location of WailukuLocation

Past Weather in Wailuku — Graph

°F

Wailuku Temperature Yesterday

Maximum temperature yesterday: 88 °F (at 11:54 AM)
Minimum temperature yesterday: 76 °F (at 1:54 AM)
Average temperature yesterday: 80 °F

High & Low Weather Summary for the Past Weeks

 TemperatureHumidityPressure
High92 °F (Aug 23, 11:54 AM)94% (Aug 22, 3:35 AM)30.10 "Hg (Aug 22, 3:35 AM)
Low70 °F (Aug 16, 5:54 AM)46% (Aug 16, 11:54 AM)29.86 "Hg (Aug 23, 2:25 PM)
Average80 °F71%29.97 "Hg
* Reported Aug 14 11:54 PM — Aug 29 11:54 PM, Wailuku, Weather by CustomWeather, © 2016

Note: Actual official high and low records may vary slightly from our data, if they occured in-between our weather recording intervals... More about our weather records

Advertising

Wailuku Weather History for the Previous 24 Hours

Scroll right to see more
 ConditionsComfort  
Time TempWeatherWind HumidityBarometerVisibility
11:54 PM
Mon, Aug 29
76 °FClear.9 mph74%30.03 "Hg10 mi
10:54 PM76 °FClear.12 mph74%30.05 "Hg10 mi
9:54 PM76 °FPassing clouds.10 mph74%30.05 "Hg10 mi
8:54 PM77 °FPassing clouds.14 mph69%30.04 "Hg10 mi
7:54 PM78 °FPassing clouds.16 mph69%30.01 "Hg10 mi
6:54 PM79 °FPassing clouds.16 mph67%29.99 "Hg10 mi
5:54 PM81 °FScattered clouds.17 mph60%29.97 "Hg10 mi
4:54 PM85 °FScattered clouds.18 mph53%29.96 "Hg10 mi
3:54 PM86 °FScattered clouds.21 mph48%29.96 "Hg10 mi
2:54 PM86 °FScattered clouds.17 mph48%29.96 "Hg10 mi
1:54 PM86 °FScattered clouds.21 mph53%29.98 "Hg10 mi
12:54 PM86 °FScattered clouds.22 mph55%30.00 "Hg10 mi
11:54 AM88 °FScattered clouds.21 mph48%30.01 "Hg10 mi
10:54 AM86 °FScattered clouds.16 mph53%30.02 "Hg10 mi
9:54 AM84 °FScattered clouds.20 mph59%30.03 "Hg10 mi
8:54 AM83 °FScattered clouds.16 mph61%30.03 "Hg10 mi
7:54 AM81 °FScattered clouds.15 mph65%30.02 "Hg10 mi
6:54 AM77 °FPassing clouds.10 mph74%30.01 "Hg10 mi
5:54 AM76 °FPassing clouds.15 mph74%29.99 "Hg10 mi
5:12 AM77 °FPartly cloudy.12 mph69%29.96 "Hg8 mi
4:54 AM78 °FPassing clouds.8 mph66%29.98 "Hg4 mi
3:54 AM77 °FOvercast.16 mph74%29.97 "Hg10 mi
2:54 AM77 °FOvercast.10 mph71%29.97 "Hg10 mi
1:54 AM76 °FOvercast.9 mph80%29.98 "Hg10 mi
Weather by CustomWeather, © 2016

See weather overviewHow to use our weather pages